Tracking 32991 objects as of 23-Jan-2026
HD Live streaming from Space Station
objects crossing your sky now

COSMOS 2256

Track COSMOS 2256 now!
10-day predictions
COSMOS 2256 is classified as:


NORAD ID: 22691
Int'l Code: 1993-038E
Perigee: 1,408.7 km
Apogee: 1,419.0 km
Inclination: 82.6 °
Period: 113.9 minutes
Semi major axis: 7784 km
RCS: 1.14 m2 (large)
Launch date: June 24, 1993
Source: Commonwealth of Independent States (former USSR) (CIS)
Launch site: PLESETSK MISSILE AND SPACE COMPLEX (PKMTR)
Your satellite tracking list
Your tracking list is empty




NASA's NSSDC Master Catalog

Two Line Element Set (TLE):
1 22691U 93038E   26022.27861610  .00000046  00000-0  19302-3 0  9994
2 22691  82.5779 305.1099 0006617 327.0958 148.5583 12.63942888503385
Source of the keplerian elements: AFSPC